WX1USN Weather Reports


Display with metric or nautical units.
time (UTC)temp
F
wind
direction
speed
MPH
gust
MPH
rain 1hr
in
rain 24hr
in
rain mn
in
humidity
%
barometer
mb
20260505034508 54 242 3.0 10.0 0.00 0.00 0.00 70 1010.7
20260505033009 54 220 3.0 9.0 0.00 0.00 0.00 69 1010.7
20260505031507 55 213 2.0 6.0 0.00 0.00 0.00 68 1010.8
20260505024507 55 211 1.0 6.0 0.00 0.00 0.00 65 1010.9
20260505023006 56 200 2.0 8.0 0.00 0.00 0.00 64 1010.9
20260505021511 56 210 3.0 9.0 0.00 0.00 0.00 62 1011.0
20260505020017 56 214 2.0 9.0 0.00 0.00 0.00 60 1011.0
20260505014514 57 232 3.0 10.0 0.00 0.00 0.00 59 1011.0
20260505013011 57 198 2.0 9.0 0.00 0.00 0.00 57 1010.9
20260505011516 58 240 2.0 8.0 0.00 0.00 0.00 55 1010.6
20260505010012 58 214 3.0 13.0 0.00 0.00 0.00 54 1010.2
20260505004509 58 203 3.0 10.0 0.00 0.00 0.00 53 1010.1
20260505003011 59 215 3.0 9.0 0.00 0.00 0.00 53 1009.8
20260505001509 60 192 3.0 9.0 0.00 0.00 0.00 51 1009.3
20260504234508 62 206 3.0 14.0 0.00 0.00 0.00 45 1008.8
20260504233007 63 212 4.0 14.0 0.00 0.00 0.00 44 1008.5
20260504231507 64 238 5.0 15.0 0.00 0.00 0.00 43 1008.2
20260504230010 64 220 5.0 18.0 0.00 0.00 0.00 43 1008.0
20260504224508 65 202 4.0 11.0 0.00 0.00 0.00 42 1007.8
20260504223008 66 286 4.0 16.0 0.00 0.00 0.00 41 1007.7
20260504221507 67 262 4.0 17.0 0.00 0.00 0.00 40 1007.6
20260504220011 68 161 5.0 23.0 0.00 0.00 0.00 38 1007.6
20260504214507 69 194 4.0 14.0 0.00 0.00 0.00 36 1007.4
20260504213008 70 242 4.0 18.0 0.00 0.00 0.00 35 1007.3
20260504211507 70 248 4.0 10.0 0.00 0.00 0.00 32 1007.2
20260504210010 72 197 3.0 14.0 0.00 0.00 0.00 29 1007.2
20260504204507 71 193 3.0 9.0 0.00 0.00 0.00 32 1007.2
20260504203007 70 236 4.0 11.0 0.00 0.00 0.00 31 1007.2
20260504201507 71 267 3.0 14.0 0.00 0.00 0.00 29 1007.2
20260504200012 71 208 4.0 10.0 0.00 0.00 0.00 29 1007.4
20260504194507 70 233 5.0 14.0 0.00 0.00 0.00 30 1007.3
20260504193007 71 257 4.0 9.0 0.00 0.00 0.00 29 1007.3
20260504191508 70 215 4.0 12.0 0.00 0.00 0.00 29 1007.2
20260504190010 71 263 4.0 14.0 0.00 0.00 0.00 30 1007.3
20260504184507 71 275 4.0 11.0 0.00 0.00 0.00 29 1007.8
20260504183007 71 190 4.0 13.0 0.00 0.00 0.00 32 1007.7
20260504181507 70 183 4.0 14.0 0.00 0.00 0.00 29 1007.9
20260504180010 70 211 5.0 15.0 0.00 0.00 0.00 28 1007.9
20260504174507 69 207 5.0 14.0 0.00 0.00 0.00 29 1008.0
20260504173008 69 254 6.0 21.0 0.00 0.00 0.00 29 1008.2
20260504081506 46 240 0.0 0.0 0.00 0.00 0.00 56 1010.5
20260504050009 43 261 0.0 2.0 0.00 0.00 0.00 57 1010.3
20260504044507 43 275 0.0 4.0 0.00 0.00 0.00 57 1010.4
20260504043009 43 242 0.0 2.0 0.00 0.00 0.00 56 1010.3
20260504041507 43 261 0.0 3.0 0.00 0.00 0.00 55 1010.2
20260504040014 43 259 1.0 4.0 0.00 0.00 0.00 55 1010.1